Regional Weather Roundup
Issued by NWS

Home | Current Version | Previous Version | Graphics & Text | Print | Product List | Glossary Off
Versions: 1 2 3 4 5 6 7 8 9 10 11 12 13 14 15 16 17 18 19 20 21 22 23 24 25 26 27 28 29 30 31 32 33 34 35 36 37 38 39 40 41 42 43 44 45 46 47 48 49 50

000
ASUS43 KTOP 300959
RWRKS

WEATHER ROUNDUP FOR KANSAS
NATIONAL WEATHER SERVICE GOODLAND KS
500 AM CDT TUE JUN 30 2015

NOTE:  "FAIR" INDICATES FEW OR NO CLOUDS BELOW 12,000 FEET WITH NO
SIGNIFICANT WEATHER AND/OR OBSTRUCTIONS TO VISIBILITY.

KSZ001>006-013>018-027>032-041>047-301100-
NORTHWEST KANSAS

CITY           SKY/WX    TMP DP  RH WIND       PRES   REMARKS
GOODLAND       CLEAR     65  53  65 SW9       30.07F
HAYS           CLEAR     63  48  59 SW5       29.99S
HILL CITY      CLEAR     65  55  70 W6        30.00S
RUSSELL        CLEAR     67  57  70 S7        29.96F
$$

KSZ061>065-074>080-084>089-301100-
SOUTHWEST KANSAS

CITY           SKY/WX    TMP DP  RH WIND       PRES   REMARKS
DODGE CITY     CLEAR     69  55  60 SW9       30.03F
ELKHART          N/A     68  54  61 W6          N/A
GARDEN CITY    CLEAR     66  56  70 SW6       30.05F
GREAT BEND     CLEAR     64  57  77 S5        29.99F
LIBERAL        CLEAR     66  55  68 SW5         N/A
$$

KSZ066>073-081>083-090>101-301100-
SOUTHEAST KANSAS

CITY           SKY/WX    TMP DP  RH WIND       PRES   REMARKS
CHANUTE        CLEAR     64  62  93 CALM      29.96S
COFFEYVILLE    CLEAR     65  64  97 CALM      29.95R
HUTCHINSON     CLEAR     61  56  83 CALM      29.98S
MEDICINE LODGE   N/A     65  61  87 N3        29.98F
NEWTON         CLEAR     70  55  60 SW3       30.00S
PARSONS        CLEAR     63  63 100 CALM      29.97S
WICHITA INTL   PTCLDY    67  59  75 CALM      29.96F
WICHITA JABRA  CLEAR     71  59  65 SW7       29.97F
WINFIELD       CLEAR     64  61  90 S5        29.98F
$$

KSZ007>012-019>026-033>040-048>060-102>105-301100-
NORTHEAST KANSAS

CITY           SKY/WX    TMP DP  RH WIND       PRES   REMARKS
CONCORDIA      CLEAR     70  58  65 SW9       29.95F
EMPORIA        CLOUDY    67  60  78 W6        29.96S
LAWRENCE       PTCLDY    62  61  96 NW3       29.93S FOG
MANHATTAN      PTCLDY    63  62  97 CALM      29.94F
OLATHE IND     PTCLDY    70  63  78 W5        29.94S
OLATHE EXE     PTCLDY    67  63  87 CALM      29.93S
SALINA         CLEAR     65  59  81 S3        29.96F
TOPEKA BILLARD CLEAR     67  64  90 CALM      29.94R
TOPEKA FORBES  PTCLDY    66  62  87 SW3       29.94S
$$


USA.gov is the U.S. government's official web portal to all federal, state and local government web resources and services.